| time (UTC) | temp C | wind direction | speed KPH | gust KPH | rain 1hr cm | rain 24hr cm | rain mn cm | humidity % | barometer mb |
| 20260504175104 | 14 | 8 | 0.0 | 0.0 | 0.00 | 0.00 | 0.00 | 49 | |
| 20260504174504 | 14 | 8 | 0.0 | 0.0 | 0.00 | 0.00 | 0.00 | 48 | |
| 20260504173905 | 15 | 8 | 0.0 | 0.0 | 0.00 | 0.00 | 0.00 | 48 | |
| 20260504173305 | 15 | 8 | 0.0 | 0.0 | 0.00 | 0.00 | 0.00 | 47 | |
| 20260504172705 | 16 | 8 | 0.0 | 0.0 | 0.00 | 0.00 | 0.00 | 47 | |
| 20260504172105 | 16 | 8 | 0.0 | 0.0 | 0.00 | 0.00 | 0.00 | 46 | |
| 20260504171505 | 16 | 8 | 0.0 | 0.0 | 0.00 | 0.00 | 0.00 | 44 | |
| 20260504170905 | 17 | 8 | 0.0 | 0.0 | 0.00 | 0.00 | 0.00 | 43 | |
| 20260504170305 | 17 | 8 | 0.0 | 0.0 | 0.00 | 0.00 | 0.00 | 41 | |
| 20260504160305 | 24 | 8 | 0.0 | 0.0 | 0.00 | 0.00 | 0.00 | 22 | |
| 20260504150905 | 22 | 355 | 4.8 | 11.3 | 0.00 | 0.00 | 0.00 | 21 | |
| 20260504150305 | 22 | 300 | 0.0 | 11.3 | 0.00 | 0.00 | 0.00 | 22 | |
| 20260504140905 | 20 | 277 | 0.0 | 14.5 | 0.00 | 0.00 | 0.00 | 26 | |
| 20260504140305 | 20 | 312 | 0.0 | 22.5 | 0.00 | 0.00 | 0.00 | 24 | |
| 20260504130305 | 16 | 12 | 8.0 | 12.9 | 0.00 | 0.00 | 0.00 | 31 | |
| 20260504120305 | 15 | 52 | 0.0 | 17.7 | 0.00 | 0.00 | 0.00 | 39 | |
| 20260504110305 | 13 | 11 | 6.4 | 11.3 | 0.00 | 0.00 | 0.00 | 41 | |
| 20260504100305 | 13 | 271 | 0.0 | 9.7 | 0.00 | 0.00 | 0.00 | 48 | |
| 20260504081707 | 11 | 358 | 0.0 | 16.1 | 0.00 | 0.18 | 0.00 | 58 | |
| 20260504081506 | 11 | 26 | 0.0 | 16.1 | 0.00 | 0.18 | 0.00 | 58 | |
| 20260504080906 | 11 | 324 | 0.0 | 9.7 | 0.00 | 0.18 | 0.00 | 60 | |
| 20260504080306 | 10 | 267 | 0.0 | 14.5 | 0.00 | 0.18 | 0.00 | 59 | |
| 20260504070306 | 9 | 286 | 8.0 | 12.9 | 0.00 | 0.18 | 0.00 | 62 | |
| 20260504050306 | 6 | 286 | 0.0 | 6.4 | 0.00 | 0.20 | 0.00 | 70 | |
| 20260504045706 | 6 | 270 | 0.0 | 0.0 | 0.00 | 0.20 | 0.00 | 68 | |
| 20260504045106 | 6 | 270 | 0.0 | 17.7 | 0.00 | 0.20 | 0.00 | 68 | |
| 20260504044506 | 6 | 313 | 0.0 | 12.9 | 0.00 | 0.20 | 0.00 | 68 | |
| 20260504043906 | 6 | 292 | 6.4 | 9.7 | 0.00 | 0.20 | 0.00 | 67 | |
| 20260504043707 | 6 | 320 | 0.0 | 9.7 | 0.00 | 0.20 | 0.00 | 69 | |
| 20260504043306 | 6 | 5 | 0.0 | 11.3 | 0.00 | 0.20 | 0.00 | 69 | |
| 20260504042706 | 5 | 241 | 0.0 | 0.0 | 0.00 | 0.20 | 0.00 | 70 | |
| 20260504042106 | 5 | 241 | 0.0 | 0.0 | 0.00 | 0.20 | 0.00 | 72 | |
| 20260504041707 | 5 | 241 | 0.0 | 8.0 | 0.00 | 0.20 | 0.00 | 74 | |
| 20260504041506 | 5 | 99 | 4.8 | 8.0 | 0.00 | 0.20 | 0.00 | 76 | |
| 20260504040906 | 4 | 178 | 0.0 | 0.0 | 0.00 | 0.20 | 0.00 | 77 | |
| 20260504040306 | 4 | 178 | 0.0 | 0.0 | 0.00 | 0.20 | 0.00 | 80 | |
| 20260504035706 | 4 | 178 | 0.0 | 0.0 | 0.00 | 0.20 | 0.00 | 81 | |
| 20260504035106 | 4 | 178 | 0.0 | 0.0 | 0.00 | 0.20 | 0.00 | 82 | |
| 20260504034506 | 4 | 178 | 0.0 | 0.0 | 0.00 | 0.20 | 0.00 | 83 | |
| 20260504033906 | 4 | 178 | 0.0 | 0.0 | 0.00 | 0.20 | 0.00 | 82 | |
| 20260504033707 | 4 | 178 | 0.0 | 0.0 | 0.00 | 0.20 | 0.00 | 82 | |
| 20260504033306 | 4 | 178 | 0.0 | 0.0 | 0.00 | 0.20 | 0.00 | 82 | |
| 20260504032706 | 4 | 178 | 0.0 | 0.0 | 0.00 | 0.20 | 0.00 | 82 | |
| 20260504032106 | 4 | 178 | 0.0 | 4.8 | 0.00 | 0.20 | 0.00 | 81 | |
| 20260504031713 | 4 | 157 | 0.0 | 0.0 | 0.00 | 0.20 | 0.00 | 82 | |
| 20260504031506 | 4 | 157 | 0.0 | 0.0 | 0.00 | 0.20 | 0.00 | 82 | |
| 20260504030906 | 4 | 157 | 0.0 | 0.0 | 0.00 | 0.20 | 0.00 | 82 | |
| 20260504030407 | 4 | 157 | 0.0 | 0.0 | 0.00 | 0.20 | 0.00 | 82 | |
| 20260504030306 | 4 | 157 | 0.0 | 0.0 | 0.00 | 0.20 | 0.00 | 82 | |
| 20260504025706 | 4 | 157 | 0.0 | 0.0 | 0.00 | 0.20 | 0.00 | 82 | |
| 20260504025106 | 4 | 157 | 0.0 | 0.0 | 0.00 | 0.20 | 0.00 | 82 | |
| 20260504024506 | 4 | 157 | 0.0 | 0.0 | 0.00 | 0.20 | 0.00 | 82 | |
| 20260504023906 | 4 | 157 | 0.0 | 0.0 | 0.00 | 0.20 | 0.00 | 82 | |
| 20260504023707 | 4 | 157 | 0.0 | 0.0 | 0.00 | 0.20 | 0.00 | 82 | |
| 20260504023306 | 4 | 157 | 0.0 | 0.0 | 0.00 | 0.20 | 0.00 | 82 | |
| 20260504022706 | 4 | 157 | 0.0 | 0.0 | 0.00 | 0.20 | 0.00 | 82 | |
| 20260504022233 | 4 | 157 | 0.0 | 0.0 | 0.00 | 0.20 | 0.00 | 82 | |
| 20260504022106 | 4 | 157 | 0.0 | 0.0 | 0.00 | 0.20 | 0.00 | 82 | |
| 20260504021506 | 4 | 157 | 0.0 | 0.0 | 0.00 | 0.20 | 0.00 | 82 | |
| 20260504020906 | 4 | 157 | 0.0 | 0.0 | 0.00 | 0.20 | 0.00 | 82 | |
| 20260504020306 | 4 | 157 | 0.0 | 0.0 | 0.00 | 0.20 | 0.00 | 81 | |
| 20260504020115 | 4 | 157 | 0.0 | 8.0 | 0.00 | 0.20 | 0.00 | 82 | |
| 20260504015706 | 4 | 157 | 0.0 | 8.0 | 0.00 | 0.20 | 0.00 | 82 | |
| 20260504015106 | 4 | 170 | 0.0 | 0.0 | 0.00 | 0.20 | 0.00 | 82 | |
| 20260504014506 | 4 | 170 | 0.0 | 0.0 | 0.00 | 0.20 | 0.00 | 81 | |
| 20260504013906 | 4 | 170 | 0.0 | 0.0 | 0.00 | 0.20 | 0.00 | 81 | |
| 20260504013707 | 4 | 170 | 0.0 | 0.0 | 0.00 | 0.20 | 0.00 | 81 | |
| 20260504013306 | 4 | 170 | 0.0 | 0.0 | 0.00 | 0.20 | 0.00 | 81 | |
| 20260504012706 | 4 | 170 | 0.0 | 6.4 | 0.00 | 0.20 | 0.00 | 81 | |
| 20260504012106 | 4 | 164 | 0.0 | 0.0 | 0.00 | 0.20 | 0.00 | 81 | |
| 20260504011707 | 4 | 164 | 0.0 | 8.0 | 0.00 | 0.20 | 0.00 | 81 | |
| 20260504011506 | 4 | 163 | 4.8 | 8.0 | 0.00 | 0.20 | 0.00 | 81 | |
| 20260504010906 | 4 | 133 | 6.4 | 6.4 | 0.00 | 0.20 | 0.00 | 81 | |
| 20260504010306 | 4 | 170 | 0.0 | 0.0 | 0.00 | 0.20 | 0.00 | 81 | |
| 20260504005706 | 4 | 170 | 0.0 | 0.0 | 0.00 | 0.20 | 0.00 | 80 | |
| 20260504005106 | 4 | 170 | 0.0 | 0.0 | 0.00 | 0.20 | 0.00 | 81 | |
| 20260504004506 | 4 | 170 | 0.0 | 4.8 | 0.00 | 0.20 | 0.00 | 80 | |
| 20260504003906 | 4 | 181 | 3.2 | 8.0 | 0.00 | 0.20 | 0.00 | 80 | |
| 20260504003306 | 4 | 171 | 0.0 | 0.0 | 0.00 | 0.20 | 0.00 | 80 | |
| 20260504002706 | 4 | 171 | 0.0 | 4.8 | 0.00 | 0.20 | 0.00 | 80 | |
| 20260504002106 | 5 | 170 | 0.0 | 0.0 | 0.00 | 0.20 | 0.00 | 80 | |
| 20260504001708 | 5 | 170 | 0.0 | 0.0 | 0.00 | 0.20 | 0.00 | 80 | |
| 20260504001506 | 5 | 170 | 0.0 | 0.0 | 0.00 | 0.20 | 0.00 | 80 | |
| 20260504000906 | 5 | 170 | 0.0 | 0.0 | 0.00 | 0.20 | 0.00 | 80 | |
| 20260504000306 | 5 | 170 | 0.0 | 0.0 | 0.00 | 0.20 | 0.00 | 80 | |
| 20260503235706 | 5 | 170 | 0.0 | 0.0 | 0.00 | 0.20 | 0.00 | 80 | |
| 20260503235106 | 5 | 170 | 0.0 | 0.0 | 0.00 | 0.20 | 0.00 | 79 | |
| 20260503234506 | 5 | 170 | 0.0 | 4.8 | 0.00 | 0.20 | 0.00 | 79 | |
| 20260503233906 | 5 | 163 | 0.0 | 0.0 | 0.00 | 0.20 | 0.00 | 79 | |
| 20260503233708 | 5 | 163 | 0.0 | 0.0 | 0.00 | 0.20 | 0.00 | 79 | |
| 20260503233306 | 5 | 163 | 0.0 | 0.0 | 0.00 | 0.20 | 0.00 | 79 | |
| 20260503232706 | 5 | 163 | 0.0 | 0.0 | 0.00 | 0.20 | 0.00 | 79 | |
| 20260503232107 | 5 | 163 | 0.0 | 4.8 | 0.00 | 0.20 | 0.00 | 79 | |
| 20260503231708 | 5 | 170 | 0.0 | 0.0 | 0.00 | 0.20 | 0.00 | 78 | |
| 20260503231507 | 5 | 170 | 0.0 | 0.0 | 0.00 | 0.20 | 0.00 | 78 | |
| 20260503230907 | 5 | 170 | 0.0 | 0.0 | 0.00 | 0.20 | 0.00 | 78 | |
| 20260503230307 | 5 | 170 | 0.0 | 0.0 | 0.00 | 0.20 | 0.00 | 78 | |
| 20260503225707 | 5 | 170 | 0.0 | 0.0 | 0.00 | 0.20 | 0.00 | 78 | |
| 20260503225107 | 5 | 170 | 0.0 | 0.0 | 0.00 | 0.20 | 0.00 | 78 | |
| 20260503224507 | 5 | 170 | 0.0 | 0.0 | 0.00 | 0.20 | 0.00 | 78 | |
| 20260503223907 | 5 | 170 | 0.0 | 0.0 | 0.00 | 0.20 | 0.00 | 77 | |
| 20260503223708 | 5 | 170 | 0.0 | 0.0 | 0.00 | 0.20 | 0.00 | 77 | |
| 20260503223307 | 5 | 170 | 0.0 | 6.4 | 0.00 | 0.20 | 0.00 | 77 | |
| 20260503222707 | 5 | 160 | 0.0 | 0.0 | 0.00 | 0.20 | 0.00 | 77 | |
| 20260503222107 | 5 | 160 | 0.0 | 0.0 | 0.00 | 0.20 | 0.00 | 77 | |
| 20260503221708 | 5 | 160 | 0.0 | 0.0 | 0.00 | 0.20 | 0.00 | 77 | |
| 20260503221507 | 5 | 160 | 0.0 | 0.0 | 0.00 | 0.20 | 0.00 | 77 | |
| 20260503220907 | 5 | 160 | 0.0 | 6.4 | 0.00 | 0.20 | 0.00 | 77 | |
| 20260503220307 | 5 | 170 | 0.0 | 0.0 | 0.00 | 0.20 | 0.00 | 77 | |
| 20260503215707 | 5 | 170 | 0.0 | 0.0 | 0.00 | 0.20 | 0.00 | 77 | |
| 20260503215107 | 5 | 170 | 0.0 | 0.0 | 0.00 | 0.20 | 0.00 | 77 | |
| 20260503214507 | 5 | 170 | 0.0 | 0.0 | 0.00 | 0.20 | 0.00 | 76 | |
| 20260503213907 | 5 | 170 | 0.0 | 0.0 | 0.00 | 0.20 | 0.00 | 76 | |
| 20260503213708 | 5 | 170 | 0.0 | 0.0 | 0.00 | 0.20 | 0.00 | 76 | |
| 20260503213307 | 5 | 170 | 0.0 | 0.0 | 0.00 | 0.20 | 0.00 | 76 | |
| 20260503212707 | 5 | 170 | 0.0 | 0.0 | 0.00 | 0.20 | 0.00 | 76 | |
| 20260503212107 | 5 | 170 | 0.0 | 0.0 | 0.00 | 0.20 | 0.00 | 76 | |
| 20260503211708 | 5 | 170 | 0.0 | 6.4 | 0.00 | 0.20 | 0.00 | 76 | |
| 20260503211507 | 5 | 170 | 0.0 | 6.4 | 0.00 | 0.20 | 0.00 | 76 | |
| 20260503210907 | 5 | 136 | 0.0 | 6.4 | 0.00 | 0.20 | 0.00 | 76 | |
| 20260503210307 | 6 | 158 | 0.0 | 6.4 | 0.00 | 0.20 | 0.00 | 76 | |
| 20260503205707 | 6 | 157 | 4.8 | 6.4 | 0.00 | 0.20 | 0.00 | 75 | |
| 20260503205107 | 6 | 164 | 0.0 | 0.0 | 0.00 | 0.20 | 0.00 | 75 | |
| 20260503204507 | 6 | 164 | 0.0 | 6.4 | 0.00 | 0.20 | 0.00 | 75 | |
| 20260503203907 | 6 | 153 | 0.0 | 6.4 | 0.00 | 0.20 | 0.00 | 75 | |
| 20260503203708 | 6 | 153 | 0.0 | 6.4 | 0.00 | 0.20 | 0.00 | 75 | |
| 20260503203307 | 6 | 151 | 0.0 | 0.0 | 0.00 | 0.20 | 0.00 | 75 | |
| 20260503202707 | 6 | 151 | 0.0 | 0.0 | 0.00 | 0.20 | 0.00 | 74 | |
| 20260503202107 | 6 | 151 | 0.0 | 0.0 | 0.00 | 0.20 | 0.00 | 74 | |
| 20260503201708 | 6 | 151 | 0.0 | 0.0 | 0.00 | 0.20 | 0.00 | 74 | |
| 20260503201507 | 6 | 151 | 0.0 | 0.0 | 0.00 | 0.20 | 0.00 | 74 | |
| 20260503200907 | 6 | 151 | 0.0 | 0.0 | 0.00 | 0.20 | 0.00 | 74 | |
| 20260503200307 | 6 | 151 | 0.0 | 0.0 | 0.00 | 0.20 | 0.00 | 74 | |
| 20260503195707 | 6 | 151 | 0.0 | 0.0 | 0.00 | 0.20 | 0.00 | 74 | |
| 20260503195107 | 7 | 151 | 0.0 | 0.0 | 0.00 | 0.20 | 0.00 | 74 | |
| 20260503194507 | 7 | 151 | 0.0 | 0.0 | 0.00 | 0.20 | 0.00 | 74 | |
| 20260503193907 | 7 | 151 | 0.0 | 0.0 | 0.00 | 0.20 | 0.00 | 73 | |
| 20260503193708 | 7 | 151 | 0.0 | 0.0 | 0.00 | 0.20 | 0.00 | 73 | |
| 20260503193307 | 7 | 151 | 0.0 | 0.0 | 0.00 | 0.20 | 0.00 | 73 | |
| 20260503192707 | 7 | 151 | 0.0 | 0.0 | 0.00 | 0.20 | 0.00 | 73 | |
| 20260503192107 | 7 | 151 | 0.0 | 0.0 | 0.00 | 0.20 | 0.00 | 73 | |
| 20260503191708 | 7 | 151 | 0.0 | 0.0 | 0.00 | 0.20 | 0.00 | 73 | |
| 20260503191507 | 7 | 151 | 0.0 | 0.0 | 0.00 | 0.20 | 0.00 | 73 | |
| 20260503190907 | 7 | 151 | 0.0 | 0.0 | 0.00 | 0.20 | 0.00 | 72 | |
| 20260503190307 | 7 | 151 | 0.0 | 0.0 | 0.00 | 0.20 | 0.00 | 72 | |
| 20260503185707 | 7 | 151 | 0.0 | 0.0 | 0.00 | 0.20 | 0.00 | 72 | |
| 20260503185107 | 7 | 151 | 0.0 | 3.2 | 0.00 | 0.20 | 0.00 | 72 | |
| 20260503184507 | 8 | 153 | 0.0 | 0.0 | 0.00 | 0.20 | 0.00 | 72 | |
| 20260503183907 | 8 | 153 | 0.0 | 0.0 | 0.00 | 0.20 | 0.00 | 72 | |
| 20260503183708 | 8 | 153 | 0.0 | 0.0 | 0.00 | 0.20 | 0.00 | 72 | |
| 20260503183307 | 8 | 153 | 0.0 | 0.0 | 0.00 | 0.20 | 0.00 | 71 | |
| 20260503182707 | 8 | 153 | 0.0 | 0.0 | 0.00 | 0.20 | 0.00 | 71 | |
| 20260503182107 | 8 | 153 | 0.0 | 3.2 | 0.00 | 0.20 | 0.00 | 70 | |
| 20260503181708 | 8 | 153 | 1.6 | 3.2 | 0.00 | 0.20 | 0.00 | 70 | |
| 20260503181507 | 8 | 147 | 0.0 | 0.0 | 0.00 | 0.20 | 0.00 | 70 | |
| 20260503180907 | 8 | 147 | 0.0 | 0.0 | 0.00 | 0.20 | 0.00 | 69 | |
| 20260503180307 | 8 | 147 | 0.0 | 0.0 | 0.00 | 0.20 | 0.00 | 67 | |
| 20260503175707 | 8 | 147 | 0.0 | 4.8 | 0.00 | 0.20 | 0.20 | 65 |